Location: Murdochville
(48.9591°N, 65.4950°W)
Time: 22:42:42
(UTC-04:00)

Envisat - Pass Details

Date: 22 April 2026
Orbit: 761 x 762 km, 98.4° (Epoch: 15 May)

Event Time Altitude Azimuth Distance (km) Brightness Sun altitude
Rises 04:30:51 0° 4° (N) 3,236 6.7 -7.8°
Reaches altitude 10° 04:33:36 10° 350° (N) 2,305 5.7 -7.4°
Maximum altitude 04:37:25 22° 301° (WNW) 1,617 4.4 -6.8°
Drops below altitude 10° 04:41:14 10° 251° (WSW) 2,293 4.8 -6.3°
Enters shadow 04:41:56 - 246° (WSW) 2,511 5.0 -6.2°
